This is the latest recevied weather packets stored in our database for station/object VK3CG. If no packets are shown the sender has not sent any weather packets the latest 10 day(s).
| Time | Temp. | Humidity | Pressure | Rain* | Wind** | Luminosity | Snow |
|---|---|---|---|---|---|---|---|
| 1777295771 | 7.78° C | 64% | 1036.9 hPa | 0 mm | - | 0 W/m² | - |
| 1777294858 | 7.78° C | 64% | 1037 hPa | 0 mm | - | 0 W/m² | - |
| 1777293956 | 7.78° C | 63% | 1037 hPa | 0 mm | - | 0 W/m² | - |
| 1777293055 | 8.89° C | 63% | 1037.2 hPa | 0 mm | - | 0 W/m² | - |
| 1777292154 | 9.44° C | 63% | 1037.1 hPa | 0 mm | - | 0 W/m² | - |
| 1777291254 | 9.44° C | 63% | 1037.1 hPa | 0 mm | - | 0 W/m² | - |
| 1777290355 | 10° C | 63% | 1037.1 hPa | 0 mm | - | 0 W/m² | - |
| 1777289454 | 10° C | 63% | 1037 hPa | 0 mm | - | 0 W/m² | - |
| 1777288566 | 10.56° C | 63% | 1037 hPa | 0 mm | - | 0 W/m² | - |
| 1777287655 | 11.11° C | 63% | 1036.9 hPa | 0 mm | - | 0 W/m² | - |
| 1777286750 | 11.11° C | 63% | 1036.8 hPa | 0 mm | - | 0 W/m² | - |
| 1777285849 | 11.11° C | 63% | 1036.7 hPa | 0 mm | - | 0 W/m² | - |
| 1777284951 | 11.67° C | 63% | 1036.6 hPa | 0 mm | - | 0 W/m² | - |
| 1777284048 | 12.22° C | 63% | 1036.5 hPa | 0 mm | - | 0 W/m² | - |
| 1777283169 | 12.22° C | 62% | 1036.5 hPa | 0 mm | - | 0 W/m² | - |
| 1777282249 | 12.78° C | 62% | 1036.4 hPa | 0 mm | - | 0 W/m² | - |
| 1777281363 | 13.33° C | 62% | 1036.4 hPa | 0 mm | - | 0 W/m² | - |
| 1777280446 | 13.33° C | 61% | 1036.2 hPa | 0 mm | - | 0 W/m² | - |
| 1777279551 | 13.89° C | 61% | 1036.1 hPa | 0 mm | - | 0 W/m² | - |
| 1777278645 | 14.44° C | 60% | 1035.9 hPa | 0 mm | - | 0 W/m² | - |
| 1777277744 | 15° C | 59% | 1035.6 hPa | 0 mm | - | 0 W/m² | - |
| 1777276844 | 15.56° C | 57% | 1035.5 hPa | 0 mm | - | 0 W/m² | - |
| 1777275952 | 16.11° C | 56% | 1035.3 hPa | 0 mm | - | 0 W/m² | - |
| 1777275043 | 16.67° C | 55% | 1035.2 hPa | 0 mm | - | 7 W/m² | - |
| 1777274142 | 16.67° C | 55% | 1035 hPa | 0 mm | - | 14 W/m² | - |
* Rain latest hour (hover to see other rain measurements)
** Current wind speed in m/s (hover to see current wind gust speed)